EW3001 Weather Reports


Display with metric or nautical units.
time (UTC)temp
F
wind
direction
speed
MPH
gust
MPH
rain 1hr
in
rain 24hr
in
rain mn
in
humidity
%
barometer
mb
20260906200055 89 360 14.0 22.0 0.00 0.02 0.02 51 1014.2
20260906194602 88 360 12.0 19.0 0.00 0.02 0.02 54 1014.5
20260906193057 88 360 10.0 19.0 0.00 0.02 0.02 57 1014.7
20260906191610 86 360 14.0 18.0 0.00 0.02 0.02 57 1014.9
20260906184606 85 360 12.0 19.0 0.00 0.02 0.02 62 1015.2
20260906183057 84 360 11.0 17.0 0.00 0.02 0.02 64 1015.2
20260906181557 83 360 12.0 19.0 0.01 0.02 0.02 67 1015.4
20260906180113 81 360 11.0 18.0 0.01 0.02 0.02 70 1015.9
20260906174601 80 360 9.0 14.0 0.01 0.02 0.02 73 1016.3
20260906173105 79 360 11.0 15.0 0.01 0.02 0.02 73 1016.1
20260906171604 77 360 8.0 13.0 0.00 0.01 0.01 78 1016.2
20260906170100 75 360 6.0 10.0 0.00 0.01 0.01 83 1016.5
20260906164557 73 360 7.0 11.0 0.00 0.01 0.01 84 1016.9
20260906163122 72 360 8.0 11.0 0.00 0.01 0.01 85 1017.4
20260906161559 71 360 2.0 9.0 0.00 0.01 0.01 85 1017.8
20260906160100 71 360 5.0 9.0 0.00 0.01 0.01 85 1018.2
20260906154558 71 0 0.0 0.0 0.00 0.01 0.01 85 1018.3
20260906153106 71 0 0.0 9.0 0.00 0.01 0.01 85 1018.6
20260906151557 71 0 0.0 4.0 0.00 0.01 0.01 85 1018.8
20260906150106 71 0 0.0 8.0 0.00 0.01 0.01 85 1019.2
20260906144602 71 360 4.0 11.0 0.00 0.01 0.01 85 1018.6
20260906143100 71 360 4.0 12.0 0.00 0.01 0.01 85 1018.6
20260906141558 71 0 2.0 5.0 0.00 0.01 0.01 85 1018.1
20260906140107 71 0 0.0 1.0 0.00 0.01 0.01 84 1018.0
20260906134557 71 0 0.0 9.0 0.00 0.01 0.01 84 1017.7
20260906133129 71 360 6.0 11.0 0.00 0.01 0.01 84 1017.2
20260906131615 71 360 6.0 12.0 0.00 0.01 0.01 84 1016.8
20260906130107 71 0 4.0 11.0 0.00 0.01 0.01 84 1017.7
20260906124559 71 360 4.0 12.0 0.00 0.01 0.01 84 1018.0
20260906123058 71 360 5.0 15.0 0.00 0.01 0.01 84 1018.0
20260906121559 71 360 8.0 15.0 0.01 0.01 0.01 84 1018.1
20260906120104 71 360 11.0 19.0 0.01 0.01 0.01 84 1018.1
20260906114557 71 360 9.0 25.0 0.01 0.01 0.01 84 1017.9
20260906113058 71 360 13.0 21.0 0.01 0.01 0.01 84 1017.7
20260906111554 72 360 12.0 20.0 0.00 0.00 0.00 82 1017.2
20260906110058 74 360 14.0 23.0 0.00 0.00 0.00 78 1017.0
20260906104559 77 360 16.0 28.0 0.00 0.00 0.00 72 1016.4
20260906103100 75 360 4.0 18.0 0.00 0.00 0.00 74 1015.9
20260906101603 74 360 2.0 4.0 0.00 0.00 0.00 76 1014.6
20260906100111 74 360 3.0 6.0 0.00 0.00 0.00 77 1013.9
20260906094616 74 360 3.0 5.0 0.00 0.00 0.00 77 1014.0
20260906093100 74 360 2.0 4.0 0.00 0.00 0.00 76 1013.7
20260906091601 74 360 4.0 8.0 0.00 0.00 0.00 76 1013.7
20260906090115 74 360 4.0 8.0 0.00 0.00 0.00 76 1013.6
20260906084602 74 360 5.0 8.0 0.00 0.00 0.00 75 1013.6
20260906083106 74 360 4.0 8.0 0.00 0.00 0.00 75 1013.7
20260906081559 75 360 4.0 6.0 0.00 0.00 0.00 74 1014.0
20260906074602 75 360 2.0 4.0 0.00 0.00 0.00 74 1014.1
20260906073104 75 0 0.0 3.0 0.00 0.00 0.00 72 1014.1
20260906071600 75 360 2.0 6.0 0.00 0.00 0.00 72 1014.2
20260906070059 75 360 0.0 3.0 0.00 0.00 0.00 72 1014.3
20260906064602 74 0 2.0 4.0 0.00 0.00 0.00 73 1014.4
20260906063100 74 0 0.0 0.0 0.00 0.00 0.00 71 1014.3
20260906061559 75 0 0.0 0.0 0.00 0.00 0.00 69 1014.2
20260906060104 77 0 0.0 1.0 0.00 0.00 0.00 66 1014.1
20260906054559 78 360 3.0 6.0 0.00 0.00 0.00 65 1014.0
20260906053056 78 360 4.0 8.0 0.00 0.00 0.00 64 1014.2
20260906051602 78 360 4.0 8.0 0.00 0.00 0.00 62 1014.2
20260906050107 79 360 5.0 8.0 0.00 0.00 0.00 60 1014.0
20260906044600 80 360 3.0 6.0 0.00 0.00 0.00 58 1014.0
20260906043058 82 360 2.0 8.0 0.00 0.00 0.00 54 1014.1
20260906041604 83 360 4.0 6.0 0.00 0.00 0.00 52 1013.9
20260906040100 84 360 4.0 8.0 0.00 0.00 0.00 51 1014.0
20260906034602 84 360 2.0 6.0 0.00 0.00 0.00 51 1014.0
20260906033101 83 360 1.0 5.0 0.00 0.00 0.00 52 1014.0
20260906031558 83 0 0.0 5.0 0.00 0.00 0.00 51 1013.8
20260906030059 84 360 2.0 8.0 0.00 0.00 0.00 52 1013.6
20260906024555 84 360 4.0 10.0 0.00 0.00 0.00 51 1013.5
20260906023059 84 360 4.0 8.0 0.00 0.00 0.00 53 1013.3
20260906021600 85 360 2.0 4.0 0.00 0.00 0.00 52 1012.9
20260906020101 86 0 0.0 4.0 0.00 0.00 0.00 50 1012.9
20260906014608 87 15 2.0 5.0 0.00 0.00 0.00 48 1013.0
20260906013058 88 15 4.0 9.0 0.00 0.00 0.00 47 1012.6
20260906011615 89 15 6.0 10.0 0.00 0.00 0.00 45 1012.4
20260906010100 90 21 8.0 16.0 0.00 0.00 0.00 43 1012.4
20260906004605 91 23 10.0 17.0 0.00 0.00 0.00 43 1012.4
20260906003059 92 17 11.0 19.0 0.00 0.00 0.00 42 1012.2
20260906001603 94 360 12.0 20.0 0.00 0.00 0.00 40 1012.2
20260906000059 94 360 12.0 20.0 0.00 0.00 0.00 40 1012.3
20260905234603 96 360 16.0 22.0 0.00 0.00 0.00 39 1012.0
20260905233111 97 360 17.0 28.0 0.00 0.00 0.00 38 1012.0
20260905231559 98 360 17.0 25.0 0.00 0.00 0.00 37 1011.8
20260905230103 99 360 13.0 21.0 0.00 0.00 0.00 34 1011.7
20260905224617 100 360 13.0 18.0 0.00 0.00 0.00 33 1011.6
20260905223107 100 360 11.0 17.0 0.00 0.00 0.00 34 1011.5
20260905221555 100 360 11.0 21.0 0.00 0.00 0.00 34 1011.6
20260905220104 100 360 11.0 18.0 0.00 0.00 0.00 35 1011.7
20260905214604 100 360 16.0 21.0 0.00 0.00 0.00 34 1011.8
20260905213059 99 360 15.0 24.0 0.00 0.00 0.00 34 1012.0
20260905211600 99 360 13.0 20.0 0.00 0.00 0.00 34 1012.4
20260905210055 100 360 10.0 20.0 0.00 0.00 0.00 35 1012.5
20260905204559 99 360 12.0 18.0 0.00 0.00 0.00 35 1012.7
20260905203104 99 360 12.0 19.0 0.00 0.00 0.00 34 1012.9
20260905201607 100 360 14.0 21.0 0.00 0.00 0.00 34 1013.2